Regional Weather Roundup
Issued by NWS

Home | Current Version | Previous Version | Text Only | Print | Product List | Glossary On
Versions: 1 2 3 4 5 6 7 8 9 10 11 12 13 14 15 16 17 18 19 20 21 22 23 24 25 26 27
000
ASUS45 KREV 232210
RWRNV
NEVADA REGIONAL WEATHER ROUNDUP
NATIONAL WEATHER SERVICE RENO NV
300 PM PDT MON OCT 23 2017

NOTE: "FAIR" INDICATES FEW OR NO CLOUDS BELOW 12,000 FEET WITH NO
SIGNIFICANT WEATHER AND/OR OBSTRUCTIONS TO VISIBILITY.

NVZ001-003-004-232300-
WESTERN NEVADA

CITY           SKY/WX    TMP DP  RH WIND       PRES   REMARKS
RENO           SUNNY     74  40  29 E13       30.54F
CARSON CITY    FAIR      73  36  25 E18       30.55S
MINDEN         FAIR      72  36  26 NW10      30.54F
FALLON         SUNNY     73  35  25 N13       30.54F
LOVELOCK       SUNNY     71  40  32 NE10      30.54F
HAWTHORNE      SUNNY     72  36  26 NW13      30.52F
$$

NVZ002-CAZ072-073-232300-
NORTHERN AND CENTRAL SIERRA

CITY           SKY/WX    TMP DP  RH WIND       PRES   REMARKS
S. LAKE TAHOE  SUNNY     67  36  31 CALM      30.57F
TRUCKEE        SUNNY     68  37  32 NE9       30.57F
SQUAW VLY 8000   N/A     57  36  44 SE7         N/A
SUSANVILLE     SUNNY     70  45  40 E8        30.57F
BLUE CANYON    SUNNY     78  37  22 VRB5      30.48F
MAMMOTH LAKES  FAIR      73  27  18 SE6       30.60F
BRIDGEPORT     FAIR      72  28  19 VRB7      30.57S
$$

NVZ030-031-036-232300-
NORTHERN NEVADA

CITY           SKY/WX    TMP DP  RH WIND       PRES   REMARKS
ELKO           SUNNY     70  34  26 CALM      30.57F
WINNEMUCCA     SUNNY     68  41  37 NE10      30.58F
WENDOVER       SUNNY     63  40  42 S6        30.57F
$$

NVZ035-037-232300-
CENTRAL NEVADA

CITY           SKY/WX    TMP DP  RH WIND       PRES   REMARKS
ELY            LGT RAIN  67  34  29 N15       30.56F
EUREKA           N/A     67  36  31 N10       30.59F
$$

NVZ013-014-232300-
SOUTH CENTRAL NEVADA

CITY           SKY/WX    TMP DP  RH WIND       PRES   REMARKS
TONOPAH        SUNNY     78  32  18 NW17      30.49F
$$

NVZ017-020-022-232300-
SOUTHERN NEVADA

CITY           SKY/WX    TMP DP  RH WIND       PRES   REMARKS
LAS VEGAS      SUNNY     90  34  13 N10       30.24F
N. LAS VEGAS   SUNNY     90  31  12 N14       30.24F
NELLIS AFB     SUNNY     89  32  13 N13       30.22F
HENDERSON      SUNNY     87  32  14 N10       30.28F
MERCURY        SUNNY     87  34  15 MISG      30.32F
$$




USA.gov is the U.S. government's official web portal to all federal, state and local government web resources and services.